Location: ???? ?????
(37.9132°N, 22.9869°E)
Time: 19:56:48
(UTC+00:00)

Cosmos 967 Rocket - Pass Details

Date: 04 August 2024
Orbit: 948 x 988 km, 65.8° (Epoch: 14 September)

Event Time Altitude Azimuth Distance (km) Brightness Sun altitude
Rises 20:22:50 0° 333° (NNW) 3,676 8.8 -27.1°
Reaches altitude 10° 20:25:27 10° 336° (NNW) 2,720 7.8 -27.4°
Maximum altitude 20:31:46 66° 58° (ENE) 1,047 4.5 -28.1°
Enters shadow 20:32:09 64° 80° (E) 1,057 4.5 -28.1°
